|
ตารางข้อมูล |
ค้นข้อมูล1 |
ค้นข้อมูล2 |
ค่าสูงสุด-ต่ำสุด |
Select Sensor -->| 20402 | 4529A | 4529C | 4529D | 89M1A | 89M1B | หน้าจอย่อ | 4529 |
ข้อมูลรวม (ยังไม่ได้เลือก Sensor)
| ID | Date Time | Room | Temp | Humidity | RSSI | Time |
|---|
| 1151648 | 2026-09-01 11:28:10 | 20402 | 30.3 °C | 45.2 % | | 11:28 |
| 1151647 | 2026-09-01 11:27:37 | 89M1B | 32.2 °C | 68.0 % | | 11:27 |
| 1151646 | 2026-09-01 11:25:41 | 4529D | 30.2 °C | 69.6 % | | 11:25 |
| 1151645 | 2026-09-01 11:22:43 | 4529A | 29.1 °C | 66.1 % | | 11:22 |
| 1151644 | 2026-09-01 11:22:23 | 4529C | 30.9 °C | 55.0 % | | 11:22 |
| 1151643 | 2026-09-01 11:22:05 | 89M1A | 34.8 °C | 61.5 % | | 11:22 |
| 1151642 | 2026-09-01 11:18:00 | 20402 | 30.4 °C | 45.1 % | | 11:18 |
| 1151641 | 2026-09-01 11:17:57 | 89M1B | 32.1 °C | 68.0 % | | 11:17 |
| 1151640 | 2026-09-01 11:16:08 | 4529D | 30.0 °C | 69.3 % | | 11:16 |
| 1151639 | 2026-09-01 11:12:29 | 4529A | 28.8 °C | 61.8 % | | 11:12 |
| 1151638 | 2026-09-01 11:12:29 | 89M1A | 34.5 °C | 59.8 % | | 11:12 |
| 1151637 | 2026-09-01 11:12:20 | 4529C | 30.2 °C | 56.2 % | | 11:12 |
| 1151636 | 2026-09-01 11:08:18 | 89M1B | 32.1 °C | 68.1 % | | 11:08 |
| 1151635 | 2026-09-01 11:07:48 | 20402 | 30.2 °C | 44.5 % | | 11:07 |
| 1151634 | 2026-09-01 11:06:35 | 4529D | 30.1 °C | 69.5 % | | 11:06 |
| 1151633 | 2026-09-01 11:02:49 | 89M1A | 33.7 °C | 63.1 % | | 11:02 |
| 1151632 | 2026-09-01 11:02:18 | 4529C | 30.1 °C | 56.2 % | | 11:02 |
| 1151631 | 2026-09-01 11:02:17 | 4529A | 29.2 °C | 67.6 % | | 11:02 |
| 1151630 | 2026-09-01 10:58:39 | 89M1B | 31.9 °C | 68.4 % | | 10:58 |
| 1151629 | 2026-09-01 10:57:38 | 20402 | 30.2 °C | 44.2 % | | 10:57 |
| 1151628 | 2026-09-01 10:57:03 | 4529D | 30.0 °C | 69.6 % | | 10:57 |
| 1151627 | 2026-09-01 10:53:13 | 89M1A | 34.1 °C | 62.1 % | | 10:53 |
| 1151626 | 2026-09-01 10:52:07 | 4529C | 30.1 °C | 55.8 % | | 10:52 |
| 1151625 | 2026-09-01 10:52:06 | 4529A | 29.2 °C | 67.8 % | | 10:52 |
| 1151624 | 2026-09-01 10:49:01 | 89M1B | 31.9 °C | 68.7 % | | 10:49 |
| 1151623 | 2026-09-01 10:47:30 | 4529D | 29.9 °C | 69.5 % | | 10:47 |
| 1151622 | 2026-09-01 10:47:28 | 20402 | 30.1 °C | 43.8 % | | 10:47 |
| 1151621 | 2026-09-01 10:43:36 | 89M1A | 34.3 °C | 62.0 % | | 10:43 |
| 1151620 | 2026-09-01 10:41:54 | 4529C | 30.0 °C | 55.5 % | | 10:41 |
| 1151619 | 2026-09-01 10:41:52 | 4529A | 28.8 °C | 66.8 % | | 10:41 |
| 1151618 | 2026-09-01 10:39:22 | 89M1B | 31.6 °C | 68.6 % | | 10:39 |
| 1151617 | 2026-09-01 10:37:57 | 4529D | 30.0 °C | 69.4 % | | 10:37 |
| 1151616 | 2026-09-01 10:37:18 | 20402 | 30.0 °C | 43.4 % | | 10:37 |
| 1151615 | 2026-09-01 10:33:58 | 89M1A | 33.6 °C | 62.8 % | | 10:33 |
| 1151614 | 2026-09-01 10:31:41 | 4529C | 30.1 °C | 54.8 % | | 10:31 |
| 1151613 | 2026-09-01 10:31:40 | 4529A | 28.8 °C | 67.0 % | | 10:31 |
| 1151612 | 2026-09-01 10:29:43 | 89M1B | 31.6 °C | 68.8 % | | 10:29 |
| 1151611 | 2026-09-01 10:28:24 | 4529D | 29.8 °C | 69.3 % | | 10:28 |
| 1151610 | 2026-09-01 10:27:08 | 20402 | 30.0 °C | 43.0 % | | 10:27 |
| 1151609 | 2026-09-01 10:24:20 | 89M1A | 33.2 °C | 63.5 % | | 10:24 |
| 1151608 | 2026-09-01 10:21:29 | 4529C | 29.9 °C | 54.9 % | | 10:21 |
| 1151607 | 2026-09-01 10:21:27 | 4529A | 28.6 °C | 65.3 % | | 10:21 |
| 1151606 | 2026-09-01 10:20:03 | 89M1B | 31.4 °C | 69.1 % | | 10:20 |
| 1151605 | 2026-09-01 10:18:51 | 4529D | 29.9 °C | 69.5 % | | 10:18 |
| 1151604 | 2026-09-01 10:16:58 | 20402 | 29.9 °C | 42.4 % | | 10:16 |
| 1151603 | 2026-09-01 10:14:42 | 89M1A | 33.1 °C | 62.7 % | | 10:14 |
| 1151602 | 2026-09-01 10:11:16 | 4529C | 29.9 °C | 54.9 % | | 10:11 |
| 1151601 | 2026-09-01 10:11:15 | 4529A | 28.6 °C | 65.2 % | | 10:11 |
| 1151600 | 2026-09-01 10:10:24 | 89M1B | 31.2 °C | 69.3 % | | 10:10 |
| 1151599 | 2026-09-01 10:09:18 | 4529D | 29.9 °C | 69.5 % | | 10:09 |
| 1151598 | 2026-09-01 10:06:48 | 20402 | 29.7 °C | 41.8 % | | 10:06 |
| 1151597 | 2026-09-01 10:05:04 | 89M1A | 33.6 °C | 64.3 % | | 10:05 |
| 1151596 | 2026-09-01 10:01:04 | 4529C | 29.8 °C | 55.5 % | | 10:01 |
| 1151595 | 2026-09-01 10:01:01 | 4529A | 28.6 °C | 67.4 % | | 10:01 |
| 1151594 | 2026-09-01 10:00:45 | 89M1B | 31.2 °C | 69.4 % | | 10:00 |
| 1151593 | 2026-09-01 09:59:46 | 4529D | 29.9 °C | 69.6 % | | 09:59 |
| 1151592 | 2026-09-01 09:56:38 | 20402 | 29.6 °C | 41.0 % | | 09:56 |
| 1151591 | 2026-09-01 09:55:27 | 89M1A | 33.5 °C | 64.2 % | | 09:55 |
| 1151590 | 2026-09-01 09:51:06 | 89M1B | 31.0 °C | 69.5 % | | 09:51 |
| 1151589 | 2026-09-01 09:50:51 | 4529C | 28.7 °C | 58.3 % | | 09:50 |
| 1151588 | 2026-09-01 09:50:49 | 4529A | 28.3 °C | 68.8 % | | 09:50 |
| 1151587 | 2026-09-01 09:50:13 | 4529D | 29.7 °C | 69.9 % | | 09:50 |
| 1151586 | 2026-09-01 09:46:28 | 20402 | 29.4 °C | 40.4 % | | 09:46 |
| 1151585 | 2026-09-01 09:45:49 | 89M1A | 32.7 °C | 66.7 % | | 09:45 |
| 1151584 | 2026-09-01 09:41:27 | 89M1B | 31.1 °C | 69.5 % | | 09:41 |
| 1151583 | 2026-09-01 09:40:38 | 4529C | 28.7 °C | 58.3 % | | 09:40 |
| 1151582 | 2026-09-01 09:40:38 | 4529D | 29.8 °C | 69.3 % | | 09:40 |
| 1151581 | 2026-09-01 09:40:38 | 4529A | 28.3 °C | 68.1 % | | 09:40 |
| 1151580 | 2026-09-01 09:36:18 | 20402 | 29.0 °C | 40.4 % | | 09:36 |
| 1151579 | 2026-09-01 09:36:12 | 89M1A | 32.6 °C | 65.8 % | | 09:36 |
| 1151578 | 2026-09-01 09:32:24 | 4529A | 29.2 °C | 69.4 % | | 09:32 |
| 1151577 | 2026-09-01 09:31:48 | 89M1B | 30.9 °C | 69.5 % | | 09:31 |
| 1151576 | 2026-09-01 09:27:42 | 4529D | 29.8 °C | 69.5 % | | 09:27 |
| 1151575 | 2026-09-01 09:26:34 | 89M1A | 32.1 °C | 67.8 % | | 09:26 |
| 1151574 | 2026-09-01 09:26:08 | 20402 | 28.1 °C | 41.4 % | | 09:26 |
| 1151573 | 2026-09-01 09:26:01 | 4529C | 30.5 °C | 56.2 % | | 09:26 |
| 1151572 | 2026-09-01 09:22:12 | 4529A | 29.3 °C | 69.2 % | | 09:22 |
| 1151571 | 2026-09-01 09:22:09 | 89M1B | 30.9 °C | 69.5 % | | 09:22 |
| 1151570 | 2026-09-01 09:18:09 | 4529D | 29.8 °C | 69.4 % | | 09:18 |
| 1151569 | 2026-09-01 09:16:56 | 89M1A | 31.8 °C | 69.3 % | | 09:16 |
| 1151568 | 2026-09-01 09:15:59 | 4529C | 30.4 °C | 56.2 % | | 09:15 |
| 1151567 | 2026-09-01 09:15:58 | 20402 | 28.1 °C | 41.4 % | | 09:15 |
| 1151566 | 2026-09-01 09:12:30 | 89M1B | 30.9 °C | 69.7 % | | 09:12 |
| 1151565 | 2026-09-01 09:11:59 | 4529A | 29.3 °C | 70.1 % | | 09:11 |
| 1151564 | 2026-09-01 09:08:36 | 4529D | 29.8 °C | 69.3 % | | 09:08 |
| 1151563 | 2026-09-01 09:07:21 | 89M1A | 31.6 °C | 70.3 % | | 09:07 |
| 1151562 | 2026-09-01 09:05:56 | 4529C | 30.3 °C | 56.3 % | | 09:05 |
| 1151561 | 2026-09-01 09:05:46 | 20402 | 27.7 °C | 43.3 % | | 09:05 |
| 1151560 | 2026-09-01 09:02:52 | 89M1B | 30.8 °C | 69.5 % | | 09:02 |
| 1151559 | 2026-09-01 09:01:47 | 4529A | 28.9 °C | 65.0 % | | 09:01 |
| 1151558 | 2026-09-01 08:59:04 | 4529D | 29.8 °C | 69.3 % | | 08:59 |
| 1151557 | 2026-09-01 08:57:38 | 89M1A | 30.9 °C | 70.4 % | | 08:57 |
| 1151556 | 2026-09-01 08:55:54 | 4529C | 30.3 °C | 56.2 % | | 08:55 |
| 1151555 | 2026-09-01 08:55:36 | 20402 | 28.1 °C | 44.6 % | | 08:55 |
| 1151554 | 2026-09-01 08:53:13 | 89M1B | 30.8 °C | 69.8 % | | 08:53 |
| 1151553 | 2026-09-01 08:51:36 | 4529A | 29.3 °C | 70.5 % | | 08:51 |
| 1151552 | 2026-09-01 08:49:31 | 4529D | 29.8 °C | 69.1 % | | 08:49 |
| 1151551 | 2026-09-01 08:48:00 | 89M1A | 30.4 °C | 71.3 % | | 08:48 |
| 1151550 | 2026-09-01 08:45:51 | 4529C | 30.3 °C | 56.2 % | | 08:45 |
| 1151549 | 2026-09-01 08:45:26 | 20402 | 28.1 °C | 44.6 % | | 08:45 |
| 1151548 | 2026-09-01 08:43:33 | 89M1B | 30.6 °C | 69.7 % | | 08:43 |
| 1151547 | 2026-09-01 08:41:25 | 4529A | 28.8 °C | 68.7 % | | 08:41 |
| 1151546 | 2026-09-01 08:39:58 | 4529D | 29.8 °C | 68.6 % | | 08:39 |
| 1151545 | 2026-09-01 08:38:22 | 89M1A | 30.1 °C | 72.1 % | | 08:38 |
| 1151544 | 2026-09-01 08:35:49 | 4529C | 30.3 °C | 56.1 % | | 08:35 |
| 1151543 | 2026-09-01 08:35:14 | 20402 | 29.2 °C | 49.9 % | | 08:35 |
| 1151542 | 2026-09-01 08:33:55 | 89M1B | 30.6 °C | 70.0 % | | 08:33 |
| 1151541 | 2026-09-01 08:31:13 | 4529A | 28.8 °C | 69.0 % | | 08:31 |
| 1151540 | 2026-09-01 08:30:26 | 4529D | 29.8 °C | 68.3 % | | 08:30 |
| 1151539 | 2026-09-01 08:28:44 | 89M1A | 30.2 °C | 72.7 % | | 08:28 |
| 1151538 | 2026-09-01 08:25:46 | 4529C | 30.2 °C | 56.0 % | | 08:25 |
| 1151537 | 2026-09-01 08:25:04 | 20402 | 30.7 °C | 54.3 % | | 08:25 |
| 1151536 | 2026-09-01 08:24:16 | 89M1B | 30.6 °C | 69.8 % | | 08:24 |
| 1151535 | 2026-09-01 08:20:58 | 4529A | 29.2 °C | 69.2 % | | 08:20 |
| 1151534 | 2026-09-01 08:20:53 | 4529D | 29.8 °C | 68.3 % | | 08:20 |
| 1151533 | 2026-09-01 08:19:07 | 89M1A | 29.9 °C | 73.9 % | | 08:19 |
| 1151532 | 2026-09-01 08:15:44 | 4529C | 30.2 °C | 56.0 % | | 08:15 |
| 1151531 | 2026-09-01 08:14:54 | 20402 | 30.7 °C | 52.4 % | | 08:14 |
| 1151530 | 2026-09-01 08:14:37 | 89M1B | 30.8 °C | 69.7 % | | 08:14 |
| 1151529 | 2026-09-01 08:11:20 | 4529D | 29.8 °C | 68.1 % | | 08:11 |
| 1151528 | 2026-09-01 08:10:46 | 4529A | 29.4 °C | 66.8 % | | 08:10 |
| 1151527 | 2026-09-01 08:09:29 | 89M1A | 29.7 °C | 74.9 % | | 08:09 |
| 1151526 | 2026-09-01 08:05:42 | 4529C | 30.2 °C | 55.8 % | | 08:05 |
| 1151525 | 2026-09-01 08:04:58 | 89M1B | 30.7 °C | 69.7 % | | 08:04 |
| 1151524 | 2026-09-01 08:04:44 | 20402 | 30.8 °C | 52.5 % | | 08:04 |
| 1151523 | 2026-09-01 08:01:47 | 4529D | 29.7 °C | 67.9 % | | 08:01 |
| 1151522 | 2026-09-01 08:00:35 | 4529A | 29.5 °C | 69.8 % | | 08:00 |
| 1151521 | 2026-09-01 07:59:51 | 89M1A | 29.4 °C | 75.5 % | | 07:59 |
| 1151520 | 2026-09-01 07:55:39 | 4529C | 30.1 °C | 55.7 % | | 07:55 |
| 1151519 | 2026-09-01 07:55:20 | 89M1B | 30.6 °C | 69.5 % | | 07:55 |
| 1151518 | 2026-09-01 07:54:34 | 20402 | 30.8 °C | 52.3 % | | 07:54 |
| 1151517 | 2026-09-01 07:52:14 | 4529D | 29.8 °C | 67.7 % | | 07:52 |
| 1151516 | 2026-09-01 07:50:23 | 4529A | 28.9 °C | 68.3 % | | 07:50 |
| 1151515 | 2026-09-01 07:50:15 | 89M1A | 29.6 °C | 74.8 % | | 07:50 |
| 1151514 | 2026-09-01 07:45:41 | 89M1B | 30.8 °C | 69.5 % | | 07:45 |
| 1151513 | 2026-09-01 07:45:37 | 4529C | 30.1 °C | 55.5 % | | 07:45 |
| 1151512 | 2026-09-01 07:44:24 | 20402 | 30.8 °C | 52.3 % | | 07:44 |
| 1151511 | 2026-09-01 07:42:41 | 4529D | 29.8 °C | 67.6 % | | 07:42 |
| 1151510 | 2026-09-01 07:40:37 | 89M1A | 29.4 °C | 74.5 % | | 07:40 |
| 1151509 | 2026-09-01 07:40:12 | 4529A | 29.6 °C | 69.9 % | | 07:40 |
| 1151508 | 2026-09-01 07:36:03 | 89M1B | 30.6 °C | 69.4 % | | 07:36 |
| 1151507 | 2026-09-01 07:35:34 | 4529C | 30.0 °C | 55.6 % | | 07:35 |
| 1151506 | 2026-09-01 07:34:14 | 20402 | 30.8 °C | 52.3 % | | 07:34 |
| 1151505 | 2026-09-01 07:33:09 | 4529D | 29.8 °C | 67.3 % | | 07:33 |
Data every 20 minute.